Location: Tauranga
(37.6860°S, 176.1670°E)
Time: 04:58:40
(UTC+13:00)

ISS - Pass Details

Date: 26 January 2019
Orbit: 403 x 411 km, 51.6° (Epoch: 20 February)

Event Time Altitude Azimuth Distance (km) Brightness Sun altitude
Exits shadow 05:35:49 - 351° (N) 2,039 -0.7 -8.8°
Reaches altitude 10° 05:37:33 10° 7° (N) 1,477 -1.2 -8.5°
Maximum altitude 05:39:50 17° 50° (NE) 1,115 -1.4 -8.1°
Drops below altitude 10° 05:42:08 10° 94° (E) 1,487 0.2 -7.7°
Sets 05:44:42 0° 114° (ESE) 2,355 2.5 -7.3°
